SCP
0 0 0 0 0 0 0 0 0 0 0 0 0 0 0 0 0 0 0 0 0 0
0 0 0 0 0 0 0 0 0 0 0 0 0 0 0 0 0 0 0 0 0 0
0 0 0 0 0 0 0 0 0 0 0 0 0 0 0 0 0 0 0 0 0 0
0 0 0 0 0 0 0 0 0 0 0 0 0 0 0 0 0 0 0 0 0 0
0 0 0 0 0 0 0 0 0 0 0 0 0 0 0 0 0 0 0 0 0 0
0 0 0 0 0 0 0 0 0 0 0 0 0 0 0 0 0 0 0 0 0 0
0 0 0 0 0 0 0 0 0 0 0 0 0 0 0 0 0 0 0 0 0 0
0 0 0 0 0 0 0 0 0 0 0 0 0 0 0 0 0 0 0 0 0 0
0 0 0 0 0 0 0 0 0 0 0 0 0 0 0 0 0 0 0 0 0 0
0 0 0 0 0 0 0 0 0 0 0 0 0 0 0 0 0 0 0 0 0 0
0 0 0 0 0 0 0 0 0 0 0 0 0 0 0 0 0 0 0 0 0 0
0 0 0 0 0 0 0 0 0 0 0 0 0 0 0 0 0 0 0 0 0 0
0 0 0 0 0 0 0 0 0 0 0 0 0 0 0 0 0 0 0 0 0 0
0 0 0 0 0 0 0 0 0 0 0 0 0 0 0 0 0 0 0 0 0 0
Wind_Speed_500mb
37 37 36 36 34 33 37 36 36 41 38 39 41 42 44 46 47 45 43 38 36 35
36 37 36 36 36 38 41 42 43 44 47 49 51 50 45 42 38 35 35 35 36 38
38 38 38 38 39 41 44 45 46 47 47 47 44 40 35 32 30 32 33 34 34 34
43 42 42 44 44 45 44 44 45 44 43 40 38 35 34 33 33 34 34 35 35 34
51 49 49 49 49 47 45 44 44 42 41 39 38 37 38 38 37 38 38 38 38 37
62 58 55 54 53 50 48 47 47 46 44 43 42 43 43 42 41 40 40 39 39 38
70 67 61 59 58 55 54 53 51 50 49 49 47 46 45 44 43 42 42 42 44 44
79 74 69 65 64 62 60 59 57 55 53 51 49 48 47 46 46 46 47 49 50 49
87 82 78 72 70 69 66 64 63 60 57 55 54 51 51 51 50 51 51 50 51 49
87 90 87 80 77 75 73 69 67 63 61 59 55 56 55 55 54 52 52 52 52 50
81 87 91 87 84 80 75 71 68 64 62 59 56 58 57 56 56 55 53 53 50 47
79 79 88 91 88 82 75 70 67 63 60 58 55 59 57 55 57 58 56 54 51 47
71 72 78 86 88 81 74 71 66 65 64 60 56 60 55 56 57 59 59 54 48 46
61 63 66 71 79 80 74 73 69 68 65 63 61 59 56 57 58 56 52 50 49 44
Wind_Direction_500mb
277 278 279 280 278 265 265 265 263 266 261 271 268 264 265 265 268 262 260 259 248 241
267 269 270 270 268 264 263 263 262 263 264 265 266 267 264 260 255 252 250 247 243 242
266 268 268 267 265 262 261 262 261 262 260 260 259 254 248 244 242 240 240 238 235 235
265 266 267 266 266 264 262 262 260 258 256 252 249 247 245 244 243 243 241 240 237 234
263 263 263 264 264 262 260 256 253 250 247 245 246 248 249 248 246 242 239 236 233 229
264 264 264 263 261 258 255 251 247 245 245 247 249 248 246 244 242 239 235 233 228 222
268 265 263 261 260 258 255 251 249 247 247 247 246 245 245 243 239 236 232 229 226 221
272 265 261 257 256 253 251 250 249 249 249 248 246 245 242 239 236 235 232 228 222 218
269 263 260 258 255 253 252 251 251 251 249 247 245 242 238 235 235 233 230 226 222 220
270 263 260 257 254 253 251 250 249 247 245 242 239 239 238 236 233 231 228 225 225 224
273 264 258 255 253 250 247 246 245 244 241 238 237 239 238 236 233 232 228 227 227 229
280 269 259 254 251 249 247 246 245 242 241 240 237 240 240 237 230 227 229 229 228 231
285 277 266 258 253 251 248 247 243 242 241 240 237 239 239 234 223 224 226 225 229 230
289 283 274 262 252 247 244 242 239 237 237 237 234 235 237 236 224 227 230 229 226 226
Wind_Speed_850mb
37 37 36 36 34 33 37 36 36 41 38 39 41 42 44 46 47 45 43 38 36 35
36 37 36 36 36 38 41 42 43 44 47 49 51 50 45 42 38 35 35 35 36 38
38 38 38 38 39 41 44 45 46 47 47 47 44 40 35 32 30 32 33 34 34 34
43 42 42 44 44 45 44 44 45 44 43 40 38 35 34 33 33 34 34 35 35 34
51 49 49 49 49 47 45 44 44 42 41 39 38 37 38 38 37 38 38 38 38 37
62 58 55 54 53 50 48 47 47 46 44 43 42 43 43 42 41 40 40 39 39 38
70 67 61 59 58 55 54 53 51 50 49 49 47 46 45 44 43 42 42 42 44 44
79 74 69 65 64 62 60 59 57 55 53 51 49 48 47 46 46 46 47 49 50 49
87 82 78 72 70 69 66 64 63 60 57 55 54 51 51 51 50 51 51 50 51 49
87 90 87 80 77 75 73 69 67 63 61 59 55 56 55 55 54 52 52 52 52 50
81 87 91 87 84 80 75 71 68 64 62 59 56 58 57 56 56 55 53 53 50 47
79 79 88 91 88 82 75 70 67 63 60 58 55 59 57 55 57 58 56 54 51 47
71 72 78 86 88 81 74 71 66 65 64 60 56 60 55 56 57 59 59 54 48 46
61 63 66 71 79 80 74 73 69 68 65 63 61 59 56 57 58 56 52 50 49 44
Wind_Direction_850mb
277 278 279 280 278 265 265 265 263 266 261 271 268 264 265 265 268 262 260 259 248 241
267 269 270 270 268 264 263 263 262 263 264 265 266 267 264 260 255 252 250 247 243 242
266 268 268 267 265 262 261 262 261 262 260 260 259 254 248 244 242 240 240 238 235 235
265 266 267 266 266 264 262 262 260 258 256 252 249 247 245 244 243 243 241 240 237 234
263 263 263 264 264 262 260 256 253 250 247 245 246 248 249 248 246 242 239 236 233 229
264 264 264 263 261 258 255 251 247 245 245 247 249 248 246 244 242 239 235 233 228 222
268 265 263 261 260 258 255 251 249 247 247 247 246 245 245 243 239 236 232 229 226 221
272 265 261 257 256 253 251 250 249 249 249 248 246 245 242 239 236 235 232 228 222 218
269 263 260 258 255 253 252 251 251 251 249 247 245 242 238 235 235 233 230 226 222 220
270 263 260 257 254 253 251 250 249 247 245 242 239 239 238 236 233 231 228 225 225 224
273 264 258 255 253 250 247 246 245 244 241 238 237 239 238 236 233 232 228 227 227 229
280 269 259 254 251 249 247 246 245 242 241 240 237 240 240 237 230 227 229 229 228 231
285 277 266 258 253 251 248 247 243 242 241 240 237 239 239 234 223 224 226 225 229 230
289 283 274 262 252 247 244 242 239 237 237 237 234 235 237 236 224 227 230 229 226 226